This demonstration page uses our WeatherBlox Daily Observations layout. Learn more.

Left ArrowRight Arrow

41.86663, -103.66717

Hourly Observations for March 20, 2018

Temp ( °F °C ) Dew Point ( °F °C ) Humidity (%) Winds ( mph kmh ) Pressure ( in mb ) Visibility ( mi km ) Precip ( " mm )
12:53 am 00:53 Clear 24 -4.4 22 -5.6 91 91 N N/A 30.10 1019 10 16 N/A
1:53 am 01:53 Mostly Cloudy 25 -3.9 23 -5 92 92 ESE 3 6 30.09 1019 10 16 N/A
2:53 am 02:53 Cloudy 27 -2.8 25 -3.9 92 92 N N/A 30.06 1018 10 16 N/A
3:53 am 03:53 Partly Cloudy 28 -2.2 26 -3.3 92 92 ESE 3 6 30.02 1017 9 14 N/A
4:53 am 04:53 Mostly Cloudy 26 -3.3 25 -3.9 96 96 SSE 5 7 30.03 1017 7 11 N/A
5:53 am 05:53 Cloudy 27 -2.8 26 -3.3 96 96 N N/A 30.02 1017 8 13 N/A
6:50 am 06:50 Cloudy with Light Snow 28 -2 27 -3 93 93 NNE 6 9 30.15 1021 2 3 N/A
6:53 am 06:53 Cloudy with Light Snow 29 -1.7 27 -2.8 92 92 NE 6 9 30.05 1018 2 3 N/A
7:05 am 07:05 Cloudy with Light Snow 29 -1.7 28 -2.2 96 96 N N/A 30.15 1021 3 5 N/A
7:18 am 07:18 Cloudy with Mist and Fog 28 -2 27 -3 93 93 WSW 3 6 30.15 1021 6 10 N/A
7:53 am 07:53 Cloudy with Mist and Fog 28 -2.2 26 -3.3 92 92 WNW 3 6 30.09 1019 6 10 N/A
8:53 am 08:53 Cloudy 31 -0.6 29 -1.7 92 92 WNW 6 9 30.09 1019 7 11 N/A
9:53 am 09:53 Mostly Sunny 37 2.8 31 -0.6 79 79 WNW 10 17 30.07 1018 10 16 N/A
10:53 am 10:53 Sunny 43 6.1 32 undefined 65 65 NW 8 13 30.05 1018 10 16 N/A
11:53 am 11:53 Mostly Sunny 47 8.3 28 -2.2 48 48 WNW 17 28 30.03 1017 10 16 N/A
12:53 pm 12:53 Mostly Cloudy 50 10 22 -5.6 33 33 NNW 18 30 30.00 1016 10 16 N/A
1:53 pm 13:53 Mostly Cloudy 51 10.6 18 -7.8 27 27 NW 23 37 29.98 1015 10 16 N/A
2:53 pm 14:53 Cloudy 52 11.1 22 -5.6 31 31 N 17 28 29.96 1015 10 16 N/A
3:53 pm 15:53 Mostly Sunny 52 11.1 22 -5.6 31 31 NNW 17 28 29.96 1014 10 16 N/A
4:53 pm 16:53 Sunny 51 10.6 22 -5.6 32 32 N 14 22 29.97 1015 10 16 N/A
5:53 pm 17:53 Sunny 48 8.9 24 -4.4 39 39 N 13 20 29.98 1015 10 16 N/A
6:53 pm 18:53 Sunny 43 6.1 24 -4.4 47 47 NE 6 9 30.00 1016 10 16 N/A
7:53 pm 19:53 Clear 37 2.8 25 -3.9 62 62 NE 5 7 30.04 1017 10 16 N/A
8:53 pm 20:53 Clear 33 0.6 25 -3.9 72 72 NE 3 6 30.06 1018 10 16 N/A
9:53 pm 21:53 Clear 31 -0.6 23 -5 72 72 N N/A 30.07 1018 10 16 N/A
10:53 pm 22:53 Clear 29 -1.7 23 -5 78 78 SSE 3 6 30.06 1018 10 16 N/A
11:53 pm 23:53 Clear 28 -2.2 23 -5 81 81 E 6 9 30.05 1018 10 16 N/A

Powered by AerisWeather